ATLAS 5 CENTAUR DEB, 43996

Orbit data source: Space-Track

ATLAS 5 CENTAUR DEB, 43996 is space debris in HEO originally from a launch on Wed, 17 Sep 2014 UTC launched from the Air Force Eastern Test Range (AFETR). Debris objects in space refer to the collection of defunct objects orbiting the Earth. Examples of debris include non-operational satellites, rocket bodies, and fragments generated from explosions, collisions, or faulty payload assembly.

Loading next visibility...
Identifier
43996, 2014-055BB
Orbit
HEO
Country
Flag of USUS
Related business
Flag of USUnited Launch Alliance/Lockheed Martin (US)
Manufacturer
Unknown
Mission
Spacecraft
Bus & Motor
Unknown
Mass
Unknown
Launch date (UTC)
2014-09-17 (11 years ago)
Launch vehicle
Unknown
Launch site
Air Force Eastern Test Range (AFETR)
Object type
Payload
Rocket body
Debris
Shape & HBR
Unknown shape, 1.1 m
Radar Cross Section
Small (<0.1 m²)

Expand to show TLE details & history
Last TLE update: 21 hours ago

TLE from 21 hours ago
0 ATLAS 5 CENTAUR DEB
1 43996U 14055BB  26072.73013902 -.00000025  00000-0  00000-0 0  9996
2 43996  19.5478 166.1872 4867298 125.6658 289.8296  1.81740826 49290
Epoch: 2026-03-13T17:31Z
TLE epoch observation values (Epoch: 2026-03-13T17:31:24.011Z)
Latitude
0.00004°
Longitude
91.93522°
Altitude
23,877.004 km
Speed
3.507 km/s
True Right ascension
11h 04m 35s
True Declination
0° 00' 00"
Sunlit
Object was in full shadow at epoch
Visualization orbit readout
Latitude
Unknown
Longitude
Unknown
Altitude
Unknown
Speed
Unknown
Apparent Right ascension
Unknown
Apparent Declination
Unknown
Sunlit
N/A
Visualization observer readout
Local Sidereal Time
18:40:41
Azimuth
Unknown
Elevation
Unknown
Doppler factor
Unknown
Orbital elements
Apogee altitude
35,794.313 km
Perigee altitude
8,181.241 km
Semi-major axis
28,365.914 km
Eccentricity
0.48673
Inclination
19.5478°
RAAN
166.1872°
Arg. of periapsis
125.6658°
True anomaly
234.27639°
Mean anomaly
289.8296°
Eccentric anomaly
262.20005°
Mean motion
0.45431 °/min
Orbital period
792.42 mins
BSTAR
0
Loading maneuver chart data...
Computing Atmospheric mass density...

Documentation

Showing up to 5 results
|